Date String (YYYY-MM-DD hh:mm:ss) UTC,Instrument flags,Ambient pressure (hPa),Sample flow (lpm),Bypass flow (lpm),Sample temperature (°C),Ambient temperature (°C),ASC tube jacket temperature (°C),LED temperature (°C),Box temperature (°C),Sample RH (%),Span deviation,Mass concentration (μg/m³),Mass concentration (μg/m³),Mass concentration (μg/m³)
DateTimeUTC,F1_M11,P_M11,Q1_M11,Q2_M11,T1_M11,T2_M11,T3_M11,T4_M11,T5_M11,U1_M11,ZSPAN_M11,X0_M11,X2_M11,X1_M11
2023-04-25 16:00:00,,0823.7,5.00,0.00,26.2,24.8,00.0,34.5,27.8,22.7,0000.0,0010.71,0006.28,0005.31
2023-04-25 16:01:00,,0823.6,5.00,0.00,26.2,24.8,00.0,34.6,27.8,23.0,0001.3,0010.73,0006.27,0005.30
2023-04-25 16:02:00,,0823.7,4.99,0.00,26.3,24.8,00.0,34.6,27.8,23.4,0001.8,0011.05,0006.28,0005.32
2023-04-25 16:03:00,,0823.7,4.99,0.00,26.3,24.8,00.0,34.6,27.8,23.6,0001.9,0011.56,0006.29,0005.34
2023-04-25 16:04:00,,0823.6,5.00,0.00,26.3,24.9,00.0,34.6,27.9,22.8,0001.4,0011.64,0006.27,0005.35
2023-04-25 16:05:00,,0823.6,5.00,0.00,26.3,24.9,00.0,34.6,27.9,22.4,0001.6,0011.45,0006.20,0005.34
2023-04-25 16:06:00,,0823.6,5.00,0.00,26.3,24.9,00.0,34.6,27.8,22.8,0001.4,0011.35,0006.17,0005.35
2023-04-25 16:07:00,,0823.7,5.01,0.00,26.3,24.9,00.0,34.6,27.9,22.5,0001.6,0010.95,0006.16,0005.36
2023-04-25 16:08:00,,0823.7,5.00,0.00,26.3,24.9,00.0,34.6,27.9,22.4,0001.8,0010.74,0006.21,0005.37
2023-04-25 16:09:00,,0823.8,5.00,0.00,26.3,24.9,00.0,34.6,27.9,22.1,0000.5,0010.92,0006.22,0005.38
2023-04-25 16:10:00,,0823.8,5.00,0.00,26.3,24.9,00.0,34.6,27.9,22.3,0000.4,0011.29,0006.22,0005.38
2023-04-25 16:11:00,,0823.8,5.00,0.00,26.3,24.9,00.0,34.6,27.9,22.3,0000.0,0011.21,0006.20,0005.39
2023-04-25 16:12:00,,0823.8,4.99,0.00,26.3,24.9,00.0,34.6,27.9,22.6,0000.0,0011.29,0006.23,0005.41
2023-04-25 16:13:00,,0823.8,4.99,0.00,26.3,24.9,00.0,34.6,27.9,22.6,0000.0,0010.95,0006.22,0005.41
2023-04-25 16:14:00,,0823.8,5.00,0.00,26.3,24.9,00.0,34.7,27.9,22.2,0000.0,0010.64,0006.25,0005.42
2023-04-25 16:15:00,,0823.8,5.01,0.00,26.3,24.9,00.0,34.7,27.9,22.4,0000.0,0010.79,0006.24,0005.42
2023-04-25 16:16:00,,0823.8,5.01,0.00,26.3,24.9,00.0,34.7,27.9,22.5,0000.0,0010.91,0006.30,0005.42
2023-04-25 16:17:00,,0823.8,4.99,0.00,26.3,24.9,00.0,34.7,27.9,22.3,0000.0,0010.98,0006.33,0005.42
2023-04-25 16:18:00,,0823.8,5.00,0.00,26.3,24.9,00.0,34.7,27.9,22.7,0000.0,0011.01,0006.33,0005.43
2023-04-25 16:19:00,,0823.8,5.01,0.00,26.3,24.9,00.0,34.7,28.0,22.0,-000.1,0011.01,0006.33,0005.43
2023-04-25 16:20:00,,0823.8,5.00,0.00,26.3,24.9,00.0,34.7,28.0,22.3,0000.0,0010.86,0006.35,0005.43
2023-04-25 16:21:00,,0823.8,5.00,0.00,26.4,24.9,00.0,34.7,28.0,21.6,0000.3,0010.46,0006.35,0005.43
2023-04-25 16:22:00,,0823.8,4.99,0.00,26.4,24.9,00.0,34.7,28.0,21.9,0000.7,0010.48,0006.37,0005.43
2023-04-25 16:23:00,,0823.8,5.00,0.00,26.4,24.9,00.0,34.7,27.9,22.0,0001.1,0010.49,0006.35,0005.42
2023-04-25 16:24:00,,0823.8,5.00,0.00,26.4,24.9,00.0,34.7,27.9,21.8,0001.3,0010.57,0006.33,0005.41
2023-04-25 16:25:00,,0823.8,5.00,0.00,26.4,25.0,00.0,34.7,28.0,22.2,0001.2,0010.41,0006.30,0005.39
2023-04-25 16:26:00,,0823.8,5.00,0.00,26.4,25.0,00.0,34.7,28.0,22.9,0001.2,0010.40,0006.40,0005.45
2023-04-25 16:27:00,,0823.9,5.01,0.00,26.4,25.0,00.0,34.7,28.0,22.6,0000.8,0010.65,0006.47,0005.53
2023-04-25 16:28:00,,0823.8,5.01,0.00,26.4,25.0,00.0,34.7,28.0,22.6,0001.2,0010.75,0006.56,0005.60
2023-04-25 16:29:00,,0823.8,5.00,0.00,26.4,25.0,00.0,34.7,28.0,22.6,0001.5,0011.39,0006.70,0005.68
2023-04-25 16:30:00,,0823.8,4.99,0.00,26.4,25.0,00.0,34.7,28.0,22.9,0001.7,0011.96,0006.77,0005.76
2023-04-25 16:31:00,,0823.8,5.00,0.00,26.4,25.0,00.0,34.7,28.0,22.6,0001.7,0011.97,0006.80,0005.85
2023-04-25 16:32:00,,0823.8,5.01,0.00,26.5,25.1,00.0,34.7,28.1,21.9,0001.7,0012.36,0006.92,0005.93
2023-04-25 16:33:00,,0823.8,5.00,0.00,26.5,25.1,00.0,34.8,28.1,22.4,0001.7,0012.66,0007.06,0006.00
2023-04-25 16:34:00,,0823.8,5.00,0.00,26.5,25.1,00.0,34.8,28.0,23.0,0002.0,0013.00,0007.23,0006.11
2023-04-25 16:35:00,,0823.8,4.99,0.00,26.5,25.1,00.0,34.8,28.1,23.1,0002.2,0013.41,0007.43,0006.26
2023-04-25 16:36:00,,0823.9,5.00,0.00,26.5,25.1,00.0,34.8,28.1,23.0,0001.8,0013.75,0007.64,0006.38
2023-04-25 16:37:00,,0823.9,5.00,0.00,26.5,25.1,00.0,34.8,28.1,22.9,0001.8,0013.86,0007.74,0006.44
2023-04-25 16:38:00,,0823.9,5.00,0.00,26.5,25.1,00.0,34.8,28.1,23.1,0001.6,0013.87,0007.83,0006.49
2023-04-25 16:39:00,,0823.9,5.00,0.00,26.5,25.1,00.0,34.8,28.1,22.7,0001.6,0013.99,0007.88,0006.56
2023-04-25 16:40:00,,0823.9,5.00,0.00,26.5,25.1,00.0,34.8,28.2,22.8,0001.3,0013.91,0007.89,0006.61
2023-04-25 16:41:00,,0824.0,4.99,0.00,26.5,25.1,00.0,34.8,28.2,23.0,0001.2,0013.66,0007.95,0006.67
2023-04-25 16:42:00,,0823.9,5.00,0.00,26.5,25.1,00.0,34.8,28.1,22.6,0001.3,0013.85,0008.08,0006.74
2023-04-25 16:43:00,,0823.9,5.00,0.00,26.5,25.2,00.0,34.9,28.2,23.4,0001.5,0013.64,0008.10,0006.81
2023-04-25 16:44:00,,0823.9,5.00,0.00,26.6,25.2,00.0,34.9,28.2,22.6,0001.3,0013.50,0008.09,0006.86
2023-04-25 16:45:00,,0823.9,5.00,0.00,26.6,25.2,00.0,34.9,28.2,22.5,0000.8,0013.98,0008.06,0006.87
2023-04-25 16:46:00,,0823.9,5.01,0.00,26.6,25.2,00.0,34.9,28.2,22.4,0000.3,0014.14,0008.06,0006.84
2023-04-25 16:47:00,,0824.0,5.01,0.00,26.6,25.2,00.0,34.9,28.2,22.2,0000.4,0014.53,0008.02,0006.84
2023-04-25 16:48:00,,0824.0,5.00,0.00,26.6,25.2,00.0,34.9,28.2,22.2,0000.5,0014.94,0007.99,0006.85
2023-04-25 16:49:00,,0824.0,4.98,0.00,26.6,25.2,00.0,34.9,28.2,21.9,0000.4,0015.48,0007.96,0006.84
2023-04-25 16:50:00,,0824.0,5.00,0.00,26.6,25.2,00.0,34.9,28.2,22.0,0000.0,0015.38,0007.94,0006.84
2023-04-25 16:51:00,,0824.0,4.99,0.00,26.6,25.2,00.0,34.9,28.2,22.0,0000.1,0015.39,0007.97,0006.86
2023-04-25 16:52:00,,0824.0,5.00,0.00,26.6,25.2,00.0,34.9,28.2,22.3,-000.1,0015.81,0007.99,0006.88
2023-04-25 16:53:00,,0823.9,5.01,0.00,26.7,25.3,00.0,34.9,28.2,21.8,-000.3,0015.72,0007.96,0006.86
2023-04-25 16:54:00,,0823.9,5.00,0.00,26.7,25.3,00.0,35.0,28.2,21.5,-000.6,0015.87,0007.96,0006.84
2023-04-25 16:55:00,,0824.0,5.01,0.00,26.7,25.3,00.0,35.0,28.2,21.6,-000.4,0016.09,0008.01,0006.84
2023-04-25 16:56:00,,0824.0,5.00,0.00,26.7,25.3,00.0,35.0,28.2,21.7,-000.2,0015.77,0008.00,0006.85
2023-04-25 16:57:00,,0823.9,4.99,0.00,26.7,25.3,00.0,35.0,28.3,21.8,-000.4,0015.32,0007.96,0006.88
2023-04-25 16:58:00,,0823.9,5.00,0.00,26.7,25.3,00.0,35.0,28.3,21.7,-000.6,0014.69,0007.94,0006.91
2023-04-25 16:59:00,,0823.9,5.00,0.00,26.7,25.3,00.0,35.0,28.3,22.0,-001.0,0014.25,0007.97,0006.94
